Dallas, TX

8:36 PM CST on February 21, 2017 (GMT -0600)
Dallas Love

Weather History for KDAL - March, 2014

Change the Weather History Date:

Friday, March 21, 2014

  Actual Average Record
Temperature  
Mean Temperature 66 °F -  
Max Temperature 80 °F 66 °F 89 °F (1997)
Min Temperature 54 °F 47 °F 37 °F (1998)
Cooling Degree Days 2    
Growing Degree Days 16 (Base 50)    
Moisture  
Dew Point 47 °F    
Average Humidity 49    
Maximum Humidity 65    
Minimum Humidity 33    
Precipitation  
Precipitation 0.00 in - - ()
Sea Level Pressure  
Sea Level Pressure 29.88 in    
Wind  
Wind Speed 12 mph (SSE)    
Max Wind Speed 21 mph    
Max Gust Speed 32 mph    
Visibility 9 miles    
Events      
Averages and records for this station are not official NWS values.
T = Trace of Precipitation, MM = Missing Value Source: NWS Daily Summary

Daily Weather History Graph

Daily Weather History Graph

Search for Another Location

Airport or City:

Trip Planner

Search our weather history database for the weather conditions in past years. The results will help you decide how hot, cold, wet, or windy it might be!

Date:

Astronomy

Mar. 21, 2014 Rise Set
Actual Time 7:29 AM CDT 7:39 PM CDT
Civil Twilight 7:05 AM CDT 8:04 PM CDT
Nautical Twilight 6:36 AM CDT 8:33 PM CDT
Astronomical Twilight 6:07 AM CDT 9:02 PM CDT
Moon No Moon Rise 10:36 AM CDT (3/21)
Length of Visible Light 12h 59m
Length of Day
12h 09m
Waning Gibbous, 75% of the Moon is Illuminated
Mar 21
Waning Gibbous
Mar 23
Last Quarter
Mar 30
New
Apr 7
First Quarter
Apr 15
Full

Hourly Weather History & Observations

Time (CDT) Temp. Dew Point Humidity Pressure Visibility Wind Dir Wind Speed Gust Speed Precip Events Conditions
12:53 AM 57.9 °F 28.9 °F 33% 29.99 in 8.0 mi SSE 9.2 mph - N/A   Partly Cloudy
1:53 AM 55.9 °F 30.0 °F 37% 29.98 in 8.0 mi SE 9.2 mph - N/A   Mostly Cloudy
2:53 AM 57.9 °F 30.9 °F 36% 29.96 in 7.0 mi SSE 9.2 mph - N/A   Mostly Cloudy
3:53 AM 57.0 °F 33.1 °F 40% 29.93 in 8.0 mi SSE 9.2 mph - N/A   Scattered Clouds
4:53 AM 55.9 °F 35.1 °F 45% 29.92 in 8.0 mi SSE 10.4 mph - N/A   Mostly Cloudy
5:53 AM 54.0 °F 37.0 °F 53% 29.91 in 9.0 mi SE 11.5 mph - N/A   Mostly Cloudy
6:53 AM 54.0 °F 39.0 °F 57% 29.91 in 9.0 mi SE 9.2 mph - N/A   Mostly Cloudy
7:53 AM 54.0 °F 39.9 °F 59% 29.92 in 9.0 mi SE 10.4 mph - N/A   Overcast
8:53 AM 57.0 °F 42.1 °F 57% 29.92 in 8.0 mi SSE 12.7 mph - N/A   Overcast
9:53 AM 61.0 °F 45.0 °F 56% 29.92 in 8.0 mi South 11.5 mph - N/A   Overcast
10:53 AM 70.0 °F 46.0 °F 42% 29.91 in 8.0 mi South 17.3 mph 23.0 mph N/A   Mostly Cloudy
11:53 AM 75.0 °F 50.0 °F 41% 29.88 in 8.0 mi South 20.7 mph 24.2 mph N/A   Mostly Cloudy
12:53 PM 78.1 °F 54.0 °F 43% 29.85 in 8.0 mi South 19.6 mph 32.2 mph N/A   Mostly Cloudy
1:53 PM 78.1 °F 54.0 °F 43% 29.84 in 9.0 mi South 19.6 mph 29.9 mph N/A   Mostly Cloudy
2:53 PM 79.0 °F 54.0 °F 42% 29.81 in 9.0 mi SSW 15.0 mph 26.5 mph N/A   Mostly Cloudy
3:53 PM 79.0 °F 54.0 °F 42% 29.79 in 10.0 mi South 16.1 mph 23.0 mph N/A   Mostly Cloudy
4:53 PM 79.0 °F 54.0 °F 42% 29.78 in 10.0 mi SSW 13.8 mph 21.9 mph N/A   Mostly Cloudy
5:53 PM 77.0 °F 55.0 °F 47% 29.79 in 10.0 mi South 13.8 mph - N/A   Mostly Cloudy
6:53 PM 75.0 °F 55.9 °F 51% 29.80 in 9.0 mi South 13.8 mph 21.9 mph N/A   Overcast
7:53 PM 73.9 °F 57.0 °F 55% 29.82 in 8.0 mi South 9.2 mph - N/A   Overcast
8:53 PM 72.0 °F 57.0 °F 59% 29.84 in 9.0 mi South 11.5 mph - N/A   Mostly Cloudy
9:53 PM 72.0 °F 57.0 °F 59% 29.87 in 10.0 mi SSE 12.7 mph - N/A   Mostly Cloudy
10:53 PM 70.0 °F 57.0 °F 63% 29.87 in 10.0 mi SSE 10.4 mph - N/A   Mostly Cloudy
11:53 PM 69.1 °F 57.0 °F 65% 29.89 in 10.0 mi SSE 11.5 mph - N/A   Scattered Clouds